| time (UTC) | temp F | wind direction | speed MPH | gust MPH | rain 1hr in | rain 24hr in | rain mn in | humidity % | barometer mb |
| 20260503200057 | 86 | 194 | 4.0 | 11.0 | 0.00 | 0.00 | 0.00 | 38 | 1010.8 |
| 20260503194609 | 88 | 190 | 2.0 | 13.0 | 0.00 | 0.00 | 0.00 | 38 | 1011.0 |
| 20260503193118 | 87 | 189 | 4.0 | 15.0 | 0.00 | 0.00 | 0.00 | 38 | 1011.0 |
| 20260503191618 | 87 | 166 | 6.0 | 15.0 | 0.00 | 0.00 | 0.00 | 34 | 1011.0 |
| 20260503190057 | 87 | 186 | 3.0 | 11.0 | 0.00 | 0.00 | 0.00 | 34 | 1011.3 |
| 20260503184607 | 87 | 171 | 6.0 | 12.0 | 0.00 | 0.00 | 0.00 | 35 | 1011.6 |
| 20260503183057 | 87 | 180 | 2.0 | 8.0 | 0.00 | 0.00 | 0.00 | 34 | 1011.5 |
| 20260503181559 | 87 | 0 | 1.0 | 9.0 | 0.00 | 0.00 | 0.00 | 34 | 1011.7 |
| 20260503174604 | 85 | 178 | 1.0 | 5.0 | 0.00 | 0.00 | 0.00 | 38 | 1011.9 |
| 20260503173104 | 84 | 0 | 0.0 | 6.0 | 0.00 | 0.00 | 0.00 | 39 | 1011.5 |
| 20260503171557 | 83 | 184 | 0.0 | 6.0 | 0.00 | 0.00 | 0.00 | 41 | 1011.7 |
| 20260503170113 | 83 | 0 | 1.0 | 5.0 | 0.00 | 0.00 | 0.00 | 42 | 1011.7 |
| 20260503160109 | 80 | 217 | 1.0 | 4.0 | 0.00 | 0.00 | 0.00 | 47 | 1011.7 |
| 20260503100106 | 60 | 0 | 0.0 | 1.0 | 0.00 | 0.00 | 0.00 | 75 | 1009.4 |
| 20260503090109 | 60 | 0 | 0.0 | 2.0 | 0.00 | 0.00 | 0.00 | 70 | 1009.6 |
| 20260503081600 | 61 | 0 | 0.0 | 1.0 | 0.00 | 0.00 | 0.00 | 69 | 1010.3 |
| 20260503080106 | 61 | 0 | 0.0 | 1.0 | 0.00 | 0.00 | 0.00 | 69 | 1010.1 |
| 20260503071614 | 63 | 0 | 0.0 | 1.0 | 0.00 | 0.00 | 0.00 | 69 | 1010.3 |
| 20260503054612 | 65 | 0 | 0.0 | 1.0 | 0.00 | 0.00 | 0.00 | 58 | 1009.5 |
| 20260503053057 | 66 | 360 | 0.0 | 0.0 | 0.00 | 0.00 | 0.00 | 58 | 1009.3 |
| 20260503051558 | 67 | 0 | 0.0 | 1.0 | 0.00 | 0.00 | 0.00 | 57 | 1009.0 |
| 20260503050058 | 68 | 0 | 0.0 | 1.0 | 0.00 | 0.00 | 0.00 | 55 | 1008.8 |
| 20260503044558 | 68 | 0 | 0.0 | 2.0 | 0.00 | 0.00 | 0.00 | 58 | 1008.6 |
| 20260503043100 | 68 | 0 | 0.0 | 2.0 | 0.00 | 0.00 | 0.00 | 58 | 1008.6 |
| 20260503041559 | 68 | 0 | 0.0 | 0.0 | 0.00 | 0.00 | 0.00 | 56 | 1008.5 |
| 20260503040058 | 69 | 0 | 0.0 | 0.0 | 0.00 | 0.00 | 0.00 | 54 | 1008.5 |
| 20260503034559 | 70 | 0 | 0.0 | 1.0 | 0.00 | 0.00 | 0.00 | 53 | 1008.2 |
| 20260503033104 | 72 | 0 | 0.0 | 1.0 | 0.00 | 0.00 | 0.00 | 50 | 1008.0 |
| 20260503031557 | 73 | 0 | 0.0 | 3.0 | 0.00 | 0.00 | 0.00 | 47 | 1007.9 |
| 20260503024557 | 76 | 0 | 1.0 | 3.0 | 0.00 | 0.00 | 0.00 | 40 | 1007.7 |
| 20260503023100 | 77 | 222 | 1.0 | 3.0 | 0.00 | 0.00 | 0.00 | 37 | 1007.7 |
| 20260503021600 | 81 | 360 | 1.0 | 3.0 | 0.00 | 0.00 | 0.00 | 30 | 1007.7 |
| 20260503020059 | 83 | 360 | 1.0 | 4.0 | 0.00 | 0.00 | 0.00 | 23 | 1007.6 |
| 20260503014603 | 85 | 222 | 1.0 | 5.0 | 0.00 | 0.00 | 0.00 | 24 | 1007.4 |
| 20260503013057 | 86 | 222 | 2.0 | 5.0 | 0.00 | 0.00 | 0.00 | 24 | 1007.5 |
| 20260503011558 | 87 | 222 | 1.0 | 6.0 | 0.00 | 0.00 | 0.00 | 24 | 1007.4 |
| 20260503010056 | 88 | 0 | 2.0 | 6.0 | 0.00 | 0.00 | 0.00 | 23 | 1007.5 |
| 20260503004558 | 88 | 224 | 3.0 | 8.0 | 0.00 | 0.00 | 0.00 | 23 | 1007.7 |
| 20260503003100 | 89 | 225 | 3.0 | 8.0 | 0.00 | 0.00 | 0.00 | 23 | 1007.7 |
| 20260503001558 | 89 | 225 | 4.0 | 9.0 | 0.00 | 0.00 | 0.00 | 24 | 1007.8 |
| 20260503000104 | 90 | 225 | 5.0 | 9.0 | 0.00 | 0.00 | 0.00 | 23 | 1007.7 |
| 20260502234559 | 90 | 230 | 6.0 | 12.0 | 0.00 | 0.00 | 0.00 | 23 | 1007.8 |
| 20260502233058 | 91 | 218 | 5.0 | 11.0 | 0.00 | 0.00 | 0.00 | 22 | 1008.0 |
| 20260502231606 | 91 | 217 | 5.0 | 12.0 | 0.00 | 0.00 | 0.00 | 22 | 1007.9 |
| 20260502230059 | 92 | 217 | 6.0 | 12.0 | 0.00 | 0.00 | 0.00 | 22 | 1007.9 |
| 20260502224601 | 92 | 242 | 7.0 | 13.0 | 0.00 | 0.00 | 0.00 | 22 | 1007.9 |
| 20260502223057 | 93 | 229 | 4.0 | 11.0 | 0.00 | 0.00 | 0.00 | 21 | 1007.8 |
| 20260502221600 | 93 | 229 | 5.0 | 12.0 | 0.00 | 0.00 | 0.00 | 22 | 1008.1 |
| 20260502214601 | 93 | 217 | 4.0 | 12.0 | 0.00 | 0.00 | 0.00 | 24 | 1008.4 |
| 20260502213102 | 93 | 228 | 5.0 | 11.0 | 0.00 | 0.00 | 0.00 | 25 | 1008.3 |
| 20260502211603 | 92 | 240 | 5.0 | 12.0 | 0.00 | 0.00 | 0.00 | 26 | 1008.6 |
| 20260502210107 | 92 | 236 | 3.0 | 12.0 | 0.00 | 0.00 | 0.00 | 26 | 1008.9 |
| 20260502204558 | 91 | 226 | 6.0 | 11.0 | 0.00 | 0.00 | 0.00 | 26 | 1009.1 |
| 20260502203058 | 92 | 195 | 4.0 | 11.0 | 0.00 | 0.00 | 0.00 | 26 | 1009.3 |
| 20260502201556 | 92 | 196 | 2.0 | 11.0 | 0.00 | 0.00 | 0.00 | 28 | 1009.5 |